Abumusa Island Airport


Codes: OIBA/AEU
Name: Abumusa Island Airport
City:
Country: Iran
Elevation: 23 ft.

Photos at Abumusa Island Airport


   Photos courtesy of SpottingLog. You can add your own sightings and photos by signing up for a free trial today.



No photos found.

Weather at Abumusa Island Airport


Time (UTC)DescriptionTempratureWindCloud coverageVisibilityPressureHumidity
16-Jun-2024 03:00Clear Sky31°C7 mph, NE0%10000m1000hPa71%
16-Jun-2024 06:00Clear Sky31°C13 mph, NE0%10000m1001hPa77%
16-Jun-2024 09:00Clear Sky32°C9 mph, N0%10000m1001hPa76%
16-Jun-2024 12:00Clear Sky32°C4 mph, NW0%10000m999hPa71%
16-Jun-2024 15:00Clear Sky32°C16 mph, NW0%10000m999hPa71%
16-Jun-2024 18:00Clear Sky32°C11 mph, NW0%10000m1000hPa73%
16-Jun-2024 21:00Clear Sky32°C11 mph, N0%10000m999hPa73%
17-Jun-2024 00:00Clear Sky32°C7 mph, E0%10000m999hPa74%
17-Jun-2024 03:00Clear Sky32°C9 mph, SE0%10000m1002hPa71%
17-Jun-2024 06:00Clear Sky32°C4 mph, NE0%10000m1002hPa66%
17-Jun-2024 09:00Clear Sky33°C7 mph, NE0%10000m1001hPa59%
17-Jun-2024 12:00Clear Sky34°C9 mph, NW0%10000m999hPa56%
17-Jun-2024 15:00Clear Sky33°C13 mph, NW0%10000m999hPa67%
17-Jun-2024 18:00Clear Sky32°C11 mph, NW0%10000m1000hPa72%
17-Jun-2024 21:00Clear Sky32°C4 mph, NW3%10000m1000hPa69%
18-Jun-2024 00:00Clear Sky32°C2 mph, NW1%10000m1000hPa71%
18-Jun-2024 03:00Clear Sky33°C11 mph, S5%10000m1001hPa59%
18-Jun-2024 06:00Clear Sky33°C9 mph, SW6%10000m1001hPa64%
18-Jun-2024 09:00Clear Sky33°C9 mph, W2%10000m1001hPa65%
18-Jun-2024 12:00Clear Sky33°C13 mph, W1%10000m1000hPa70%
18-Jun-2024 15:00Clear Sky33°C13 mph, W0%10000m1000hPa71%
18-Jun-2024 18:00Clear Sky32°C16 mph, W0%10000m1000hPa73%
18-Jun-2024 21:00Few Clouds33°C11 mph, NW22%10000m999hPa69%
19-Jun-2024 00:00Broken Clouds33°C7 mph, SW58%10000m998hPa71%
19-Jun-2024 03:00Broken Clouds32°C16 mph, SW61%10000m999hPa77%
19-Jun-2024 06:00Scattered Clouds32°C16 mph, SW43%10000m1000hPa79%
19-Jun-2024 09:00Clear Sky32°C13 mph, W0%10000m1000hPa77%
19-Jun-2024 12:00Clear Sky32°C13 mph, W0%10000m997hPa74%
19-Jun-2024 15:00Clear Sky32°C11 mph, SW0%10000m997hPa73%
19-Jun-2024 18:00Clear Sky32°C16 mph, SW0%10000m998hPa75%
19-Jun-2024 21:00Clear Sky32°C16 mph, SW6%10000m996hPa77%
20-Jun-2024 00:00Clear Sky32°C11 mph, SW5%10000m996hPa78%
20-Jun-2024 03:00Clear Sky32°C0 mph, SE5%10000m997hPa78%
20-Jun-2024 06:00Clear Sky32°C7 mph, NE3%10000m998hPa76%
20-Jun-2024 09:00Clear Sky33°C7 mph, NE0%10000m997hPa70%
20-Jun-2024 12:00Clear Sky33°C2 mph, SW0%10000m995hPa66%
20-Jun-2024 15:00Clear Sky33°C7 mph, W0%10000m995hPa73%
20-Jun-2024 18:00Clear Sky32°C7 mph, NW0%10000m996hPa74%
20-Jun-2024 21:00Clear Sky32°C4 mph, NW0%10000m996hPa71%
21-Jun-2024 00:00Clear Sky32°C7 mph, SE0%10000m996hPa74%